Location: Newark
(13.0494°N, 109.3336°E)
Time: 11:24:41
(UTC+00:00)

ISS - Visible Passes

Search period start: 15 December 2019 00:00
Search period end: 25 December 2019 00:00
Orbit: 411 x 421 km, 51.6° (Epoch: 15 December)

Date Brightness Start Highest point End Pass type
(mag) Time Alt. Az. Time Alt. Az. Time Alt. Az.
17 Dec -0.6 22:14:55 10° S 22:17:20 19° SE 22:19:46 10° ENE visible
19 Dec -3.9 22:13:32 10° SW 22:16:50 80° NW 22:20:08 10° NE visible
20 Dec -2.4 21:25:46 14° SSW 21:28:20 38° SE 21:31:27 10° NE visible
21 Dec -2.2 22:15:57 16° WNW 22:16:25 17° NW 22:18:37 10° N visible
